When you browse on this site, cookies collect data to enhance your experience and personalize the content and advertising you see.
Visit our Privacy Policy to learn more. By continuing to use the site, you agree to this use of cookies and data.
  • In Hungary
  • List of Countries
  • For 7 days
  • Water Temperature
  • Weather Map
  • News
  • Weather Widgets
  • user-avatar
    Login

    Hourly Weather Taipei

    Today, 14 November, Thursday

    Time Temperature Precipitation Wind Pressure Humidity
    00:00 +21°C° 0.2 mm 5 mps 761 mmHg 82%
    01:00 +21°C° 0.2 mm 5 mps 760 mmHg 81%
    02:00 +21°C° 0 mm 5 mps 760 mmHg 81%
    03:00 +21°C° 0.1 mm 5 mps 760 mmHg 81%
    04:00 +20°C° 0.1 mm 5 mps 760 mmHg 81%
    05:00 +20°C° 0.1 mm 5 mps 760 mmHg 81%
    06:00 +20°C° 0.2 mm 5 mps 761 mmHg 81%
    07:00 +20°C° 0.2 mm 6 mps 761 mmHg 80%
    08:00 +20°C° 0 mm 5 mps 761 mmHg 84%
    09:00 +20°C° 0.3 mm 5 mps 761 mmHg 80%
    10:00 +20°C° 0.3 mm 6 mps 761 mmHg 77%
    11:00 +20°C° 0.3 mm 6 mps 761 mmHg 73%
    12:00 +20°C° 0 mm 6 mps 760 mmHg 72%
    13:00 +20°C° 0 mm 6 mps 759 mmHg 72%
    14:00 +21°C° 0 mm 5 mps 758 mmHg 72%
    15:00 +21°C° 0.1 mm 6 mps 759 mmHg 74%
    16:00 +20°C° 0.1 mm 6 mps 759 mmHg 75%
    17:00 +20°C° 0.1 mm 6 mps 760 mmHg 77%
    18:00 +20°C° 0.2 mm 6 mps 760 mmHg 79%
    19:00 +20°C° 0.2 mm 6 mps 760 mmHg 82%
    20:00 +20°C° 0.2 mm 6 mps 760 mmHg 84%
    21:00 +19°C° 0.1 mm 6 mps 760 mmHg 84%
    22:00 +19°C° 0.1 mm 5 mps 760 mmHg 84%
    23:00 +19°C° 0.1 mm 5 mps 760 mmHg 83%

    Tomorrow, 15 November, Friday

    Time Temperature Precipitation Wind Pressure Humidity
    00:00 +19°C° 0 mm 5 mps 759 mmHg 83%
    01:00 +19°C° 0 mm 5 mps 759 mmHg 83%
    02:00 +19°C° 0 mm 5 mps 758 mmHg 83%
    03:00 +17°C° 0 mm 5 mps 758 mmHg 83%
    04:00 +17°C° 0 mm 5 mps 758 mmHg 82%
    05:00 +18°C° 0 mm 4 mps 758 mmHg 82%
    06:00 +19°C° 0 mm 5 mps 758 mmHg 80%
    07:00 +19°C° 0 mm 5 mps 758 mmHg 78%
    08:00 +20°C° 0 mm 5 mps 758 mmHg 77%
    09:00 +21°C° 0 mm 5 mps 758 mmHg 73%
    10:00 +21°C° 0 mm 5 mps 758 mmHg 70%
    11:00 +22°C° 0 mm 6 mps 758 mmHg 67%
    12:00 +23°C° 0 mm 6 mps 758 mmHg 65%
    13:00 +23°C° 0 mm 6 mps 757 mmHg 63%
    14:00 +23°C° 0 mm 6 mps 757 mmHg 61%
    15:00 +23°C° 0 mm 5 mps 757 mmHg 64%
    16:00 +22°C° 0 mm 5 mps 757 mmHg 67%
    17:00 +21°C° 0 mm 4 mps 757 mmHg 70%
    18:00 +21°C° 0 mm 4 mps 757 mmHg 72%
    19:00 +21°C° 0 mm 4 mps 757 mmHg 74%
    20:00 +21°C° 0 mm 4 mps 758 mmHg 77%
    21:00 +21°C° 0 mm 4 mps 758 mmHg 78%
    22:00 +21°C° 0 mm 4 mps 758 mmHg 78%
    23:00 +21°C° 0 mm 4 mps 758 mmHg 79%

    Day after tomorrow, 16 November, Saturday

    Time Temperature Precipitation Wind Pressure Humidity
    00:00 +21°C° 0 mm 4 mps 757 mmHg 81%
    01:00 +20°C° 0 mm 4 mps 757 mmHg 82%
    02:00 +20°C° 0 mm 4 mps 756 mmHg 83%
    03:00 +20°C° 0 mm 4 mps 756 mmHg 83%
    04:00 +20°C° 0 mm 4 mps 756 mmHg 84%
    05:00 +20°C° 0 mm 3 mps 756 mmHg 84%
    06:00 +20°C° 0 mm 3 mps 756 mmHg 81%
    07:00 +21°C° 0 mm 4 mps 757 mmHg 77%
    08:00 +22°C° 0 mm 4 mps 757 mmHg 74%
    09:00 +23°C° 0 mm 4 mps 757 mmHg 70%
    10:00 +25°C° 0 mm 4 mps 757 mmHg 67%
    11:00 +26°C° 0 mm 5 mps 757 mmHg 63%
    12:00 +26°C° 0 mm 5 mps 756 mmHg 64%
    13:00 +27°C° 0 mm 5 mps 756 mmHg 64%
    14:00 +27°C° 0 mm 5 mps 755 mmHg 65%
    15:00 +26°C° 0 mm 5 mps 755 mmHg 69%
    16:00 +25°C° 0 mm 4 mps 755 mmHg 73%
    17:00 +23°C° 0 mm 4 mps 756 mmHg 77%
    18:00 +23°C° 0 mm 4 mps 756 mmHg 79%
    19:00 +23°C° 0 mm 4 mps 756 mmHg 81%
    20:00 +22°C° 0 mm 4 mps 757 mmHg 83%
    21:00 +22°C° 0 mm 4 mps 757 mmHg 83%
    22:00 +22°C° 0 mm 3 mps 757 mmHg 83%
    23:00 +22°C° 0 mm 3 mps 757 mmHg 83%

    17 November, Sunday

    Time Temperature Precipitation Wind Pressure Humidity
    00:00 +22°C° 0 mm 3 mps 756 mmHg 83%
    01:00 +22°C° 0 mm 3 mps 756 mmHg 83%
    02:00 +23°C° 0 mm 2 mps 755 mmHg 82%
    03:00 +23°C° 0 mm 2 mps 755 mmHg 81%
    04:00 +21°C° 0 mm 2 mps 755 mmHg 80%
    05:00 +21°C° 0 mm 2 mps 755 mmHg 79%
    06:00 +23°C° 0 mm 2 mps 755 mmHg 77%
    07:00 +24°C° 0 mm 2 mps 755 mmHg 76%
    08:00 +25°C° 0 mm 2 mps 756 mmHg 74%
    09:00 +27°C° 0 mm 2 mps 756 mmHg 72%
    10:00 +28°C° 0 mm 3 mps 755 mmHg 69%
    11:00 +30°C° 0 mm 3 mps 755 mmHg 67%
    12:00 +30°C° 0 mm 3 mps 755 mmHg 65%
    13:00 +30°C° 0 mm 2 mps 754 mmHg 63%
    14:00 +31°C° 0 mm 2 mps 754 mmHg 61%
    15:00 +29°C° 0 mm 2 mps 754 mmHg 66%
    16:00 +28°C° 0 mm 2 mps 754 mmHg 71%
    17:00 +27°C° 0 mm 2 mps 754 mmHg 76%
    18:00 +27°C° 0 mm 1 mps 755 mmHg 78%
    19:00 +26°C° 0 mm 1 mps 755 mmHg 80%
    20:00 +26°C° 0 mm 1 mps 756 mmHg 81%
    21:00 +26°C° 0 mm 1 mps 756 mmHg 81%
    22:00 +26°C° 0 mm 1 mps 756 mmHg 82%
    23:00 +25°C° 0 mm 1 mps 756 mmHg 82%

    18 November, Monday

    Time Temperature Precipitation Wind Pressure Humidity
    00:00 +25°C° 0 mm 1 mps 755 mmHg 81%
    01:00 +25°C° 0 mm 1 mps 755 mmHg 81%
    02:00 +25°C° 0 mm 1 mps 755 mmHg 81%
    03:00 +25°C° 0 mm 2 mps 755 mmHg 82%
    04:00 +24°C° 0 mm 2 mps 755 mmHg 82%
    05:00 +24°C° 0 mm 2 mps 755 mmHg 83%
    06:00 +24°C° 0.3 mm 3 mps 756 mmHg 84%
    07:00 +23°C° 0.3 mm 5 mps 757 mmHg 86%
    08:00 +23°C° 0.3 mm 6 mps 757 mmHg 87%
    09:00 +22°C° 0.7 mm 6 mps 758 mmHg 88%
    10:00 +22°C° 0.7 mm 6 mps 758 mmHg 88%
    11:00 +21°C° 0.7 mm 6 mps 758 mmHg 89%
    12:00 +21°C° 0.7 mm 6 mps 758 mmHg 89%
    13:00 +21°C° 0.7 mm 7 mps 758 mmHg 88%
    14:00 +20°C° 0.7 mm 7 mps 758 mmHg 88%
    15:00 +20°C° 0.3 mm 7 mps 758 mmHg 87%
    16:00 +18°C° 0.3 mm 7 mps 758 mmHg 86%
    17:00 +17°C° 0.3 mm 7 mps 758 mmHg 84%
    18:00 +17°C° 0.1 mm 6 mps 759 mmHg 84%
    19:00 +17°C° 0.1 mm 6 mps 760 mmHg 84%
    20:00 +17°C° 0.1 mm 6 mps 760 mmHg 84%
    21:00 +17°C° 0.1 mm 6 mps 760 mmHg 84%
    22:00 +16°C° 0.1 mm 6 mps 760 mmHg 83%
    23:00 +16°C° 0.1 mm 6 mps 760 mmHg 82%

    19 November, Tuesday

    Time Temperature Precipitation Wind Pressure Humidity
    00:00 +16°C° 0.1 mm 6 mps 760 mmHg 83%
    01:00 +16°C° 0.1 mm 6 mps 760 mmHg 85%
    02:00 +16°C° 0.1 mm 6 mps 759 mmHg 86%
    03:00 +16°C° 0.1 mm 6 mps 759 mmHg 85%
    04:00 +16°C° 0.1 mm 6 mps 760 mmHg 85%
    05:00 +16°C° 0.1 mm 6 mps 760 mmHg 84%
    06:00 +16°C° 0.2 mm 6 mps 760 mmHg 84%
    07:00 +16°C° 0.2 mm 6 mps 760 mmHg 85%
    08:00 +16°C° 0.2 mm 6 mps 761 mmHg 85%
    09:00 +16°C° 0.1 mm 6 mps 761 mmHg 84%
    10:00 +16°C° 0.1 mm 6 mps 761 mmHg 82%
    11:00 +17°C° 0.1 mm 6 mps 761 mmHg 81%
    12:00 +17°C° 0.1 mm 6 mps 760 mmHg 82%
    13:00 +17°C° 0.1 mm 6 mps 760 mmHg 82%
    14:00 +17°C° 0.1 mm 6 mps 759 mmHg 82%
    15:00 +17°C° 0.1 mm 6 mps 760 mmHg 83%
    16:00 +17°C° 0.1 mm 6 mps 760 mmHg 84%
    17:00 +17°C° 0.1 mm 6 mps 760 mmHg 85%
    18:00 +17°C° 0.1 mm 6 mps 760 mmHg 83%
    19:00 +17°C° 0.1 mm 6 mps 761 mmHg 82%
    20:00 +17°C° 0.1 mm 6 mps 761 mmHg 80%
    21:00 +17°C° 0.1 mm 6 mps 761 mmHg 82%
    22:00 +17°C° 0.1 mm 6 mps 761 mmHg 83%
    23:00 +17°C° 0.1 mm 6 mps 761 mmHg 84%
    Show more